Location: Unspecified
(0.0000°N, 0.0000°E)
Time: 09:49:05
(UTC+00:00)

MIDAS 4 DEB - Pass Details

Date: 11 November 2025
Orbit: 3271 x 3959 km, 95.8° (Epoch: 26 July)

Event Time Altitude Azimuth Distance (km) Brightness Sun altitude
Exits shadow 21:19:50 89° 1° (N) 3,672 ? -50.4°
Maximum altitude 21:20:03 90° 289° (WNW) 3,674 ? -50.4°
Drops below altitude 10° 21:39:50 10° 191° (SSW) 7,012 ? -54.7°
Sets 21:44:25 0° 191° (S) 8,090 ? -55.7°
